Showing default

IRIDIUM 168, 43924

Orbit data source: Space-Track

IRIDIUM 168, 43924 is a payload satellite owned by Iridium (US) in LEO that was launched on Fri, 11 Jan 2019 UTC via an FALCON 9 launch vehicle from the Air Force Western Test Range (AFWTR). Payload-class satellites include a variety of spacecraft equipped with specific instruments for various scientific and technological missions. These include communications satellites like Starlink; space stations such as the ISS; scientific satellites like the Hubble; Earth observation satellites from companies like Planet Labs, Umbra, and HawkEye 360; GPS; miniature CubeSats for education and research; and military/defense satellites.

Loading next visibility...
Identifier
43924, 2019-002C
Orbit
LEO
Country
Flag of USUS
Related business
Manufacturer
NGIS SSG Gilbert
Mission
Operational Commercial Communications
Bus & Motor
ELITEBUS, Unknown motor
Mass
860 kg wet, 700 kg dry
Launch date (UTC)
2019-01-11 (7 years ago)
Launch vehicle
FALCON 9
Launch site
Air Force Western Test Range (AFWTR)
Object type
Payload
Rocket body
Debris
Shape & HBR
Trap Box + 2 Pan, 4.8 m
Radar Cross Section
10.154 m², Large (>1 m²)

Expand to show TLE details & history
Last TLE update: 1 day ago

TLE from 1 day ago
0 IRIDIUM 168
1 43924U 19002C   25348.73141417  .00000351  00000-0  11840-3 0  9990
2 43924  86.3968  70.7808 0002046  97.7091 262.4338 14.34221816362538
Epoch: 2025-12-14T17:33Z
TLE epoch observation values (Epoch: 2025-12-14T17:33:14.184Z)
Latitude
0.00007°
Longitude
83.83158°
Altitude
780.898 km
Speed
7.463 km/s
True Right ascension
04h 43m 07s
True Declination
0° 00' 00"
Sunlit
Object was in full shadow at epoch
Visualization orbit readout
Latitude
Unknown
Longitude
Unknown
Altitude
Unknown
Speed
Unknown
Apparent Right ascension
Unknown
Apparent Declination
Unknown
Sunlit
N/A
Visualization observer readout
Local Sidereal Time
17:45:40
Azimuth
Unknown
Elevation
Unknown
Doppler factor
Unknown
Orbital elements
Apogee altitude
776.082 km
Perigee altitude
773.155 km
Semi-major axis
7,152.755 km
Eccentricity
0.0002
Inclination
86.3968°
RAAN
70.7808°
Arg. of periapsis
97.7091°
True anomaly
262.41056°
Mean anomaly
262.4338°
Eccentric anomaly
262.42218°
Mean motion
3.58784 °/min
Orbital period
100.34 mins
BSTAR
0.0001184
Loading maneuver chart data...
Computing Atmospheric mass density...
Loading historical data...
Loading historical data...
Loading historical data...
Loading historical data...
Loading historical data...
Loading historical data...
Loading historical data...

Documentation

Showing up to 5 results
|